Helicity
223 242 237 208 199 264 284 236 323 257 327 388 340 277 301 300 317 282 223 191 171 149 111 137 138 152 206 251 264 270 250 189 152 129 125 137 135 143 138 133 109 89 95 115
221 246 246 235 203 190 278 275 290 250 249 294 255 300 304 231 247 205 169 173 180 168 166 173 181 209 262 270 265 240 191 148 106 97 111 151 142 141 131 124 99 84 95 125
214 199 255 248 203 298 381 341 301 364 349 370 276 223 218 227 218 161 176 227 205 179 210 194 193 225 254 214 193 182 156 144 134 102 131 149 152 140 101 92 87 86 115 172
279 427 339 311 330 299 315 296 444 434 413 314 277 174 148 235 227 213 225 202 211 186 156 140 152 173 165 157 144 131 129 126 131 144 151 153 129 114 109 91 94 104 130 182
463 445 335 228 368 499 443 232 346 417 480 317 346 317 287 256 216 196 188 188 130 129 149 156 153 117 108 109 113 121 122 123 110 112 117 118 117 97 77 68 94 120 147 173
515 454 417 347 375 215 239 208 279 282 333 305 332 285 259 182 163 162 137 128 120 136 127 97 83 71 59 51 56 64 55 81 107 84 83 84 84 101 102 116 124 123 154 162
497 513 462 321 278 351 438 363 196 153 231 260 278 231 147 125 134 127 125 114 118 109 104 88 89 87 91 65 61 67 68 61 71 38 80 79 93 105 114 129 137 155 170 196
637 515 304 262 329 377 224 145 109 122 176 217 216 200 167 146 152 147 145 139 105 112 94 71 76 84 93 74 69 73 82 86 98 86 60 55 82 108 124 141 148 157 170 185
272 320 386 137 223 243 230 208 197 198 159 165 229 184 176 176 167 133 113 96 79 86 85 77 84 76 77 61 63 74 89 90 99 103 102 80 75 86 115 128 137 154 154 162
323 241 210 134 244 240 203 196 170 146 152 184 182 177 216 205 172 148 142 125 123 110 91 96 91 78 92 82 62 57 83 94 93 103 108 78 90 104 111 111 122 113 113 140
276 202 177 150 176 191 194 193 198 194 175 174 217 203 184 191 187 168 168 164 153 127 105 87 79 78 102 83 70 75 94 84 69 79 75 94 125 134 123 110 94 92 99 133
164 161 232 240 272 274 256 221 202 218 229 243 250 262 251 242 213 200 187 193 169 144 118 110 103 104 116 104 99 107 89 75 68 72 89 111 126 148 133 102 87 96 106 111
188 193 217 202 165 164 200 188 163 173 167 177 195 205 228 236 235 234 229 216 170 131 128 131 125 114 113 128 113 92 88 95 90 90 103 117 126 120 131 102 93 81 82 83
131 126 142 125 129 104 125 117 129 162 178 159 146 156 167 184 203 188 145 138 159 137 187 171 167 131 132 115 112 112 95 80 90 108 112 120 118 116 87 75 62 64 54 58
106 94 86 97 88 75 93 113 98 116 132 132 132 133 139 129 131 131 156 186 195 172 147 149 138 125 105 124 109 87 86 93 112 112 113 120 115 94 71 59 56 61 58 61
71 59 56 61 74 75 76 77 86 72 80 82 76 70 82 104 109 118 122 101 115 90 119 146 136 89 96 98 103 111 106 107 98 104 109 102 87 68 53 53 53 55 60 66
62 45 65 62 54 49 53 55 45 37 35 22 2 -18 41 77 102 96 48 56 150 162 134 112 79 80 85 92 103 103 88 84 89 93 67 66 58 51 45 49 51 59 72 80
30 19 15 -12 -20 -1 16 20 19 -41 -29 -20 -22 39 19 64 85 89 77 115 138 78 121 47 56 88 86 86 85 68 72 73 61 62 58 63 60 61 64 70 77 82 88 95
37 25 39 40 2 -16 6 -7 -4 7 13 38 43 40 61 42 76 89 156 137 111 115 52 37 66 86 81 60 61 58 55 59 69 61 59 69 66 66 68 73 80 85 93 100
47 38 44 33 31 21 3 -19 -11 18 34 73 75 61 50 35 61 88 82 84 58 43 54 68 72 71 67 52 52 50 52 60 64 56 56 56 59 66 66 65 69 78 84 87
45 48 40 46 44 45 45 44 55 58 61 40 55 56 52 56 71 70 63 55 53 69 67 61 55 59 66 57 45 52 55 61 50 52 54 57 64 64 58 56 58 62 71 75
32 45 47 44 39 49 74 91 86 87 67 64 68 79 81 78 72 71 53 49 40 38 40 42 46 58 64 63 49 52 61 59 49 53 54 50 52 51 47 52 58 62 62 61
21 22 31 45 49 65 90 122 103 85 79 83 79 78 69 53 56 63 55 34 35 34 44 56 63 62 63 57 47 45 49 54 51 47 44 41 38 38 42 49 55 60 62 59
21 24 30 35 36 57 82 78 83 78 82 83 77 66 70 66 68 56 49 37 40 41 44 55 63 68 68 61 53 53 62 65 56 48 43 41 33 33 42 52 51 50 52 54
25 23 30 40 54 54 52 57 54 47 56 68 72 58 48 42 41 43 44 41 52 61 64 69 72 76 70 59 57 63 73 65 58 54 48 41 35 38 44 45 45 52 56 58
38 47 54 53 39 16 11 15 35 38 43 53 47 43 45 50 61 56 49 43 55 62 67 66 61 59 60 59 62 74 75 65 55 48 43 35 35 36 37 41 46 49 52 59
25 29 32 37 36 29 20 12 18 35 45 51 47 25 28 45 51 48 47 47 54 58 59 55 49 54 68 69 70 73 67 60 51 49 40 36 33 31 36 44 51 57 66 75
Wind_Speed
64 59 55 57 57 56 56 58 65 71 69 56 44 42 37 32 39 43 43 48 51 51 54 56 57 52 43 40 40 41 42 43 45 46 48 50 54 55 54 52 48 46 44 41
73 67 66 74 70 65 63 62 69 73 74 48 41 41 42 38 44 45 46 50 51 51 50 48 52 45 41 40 43 43 44 45 47 49 51 53 53 52 53 51 46 41 39 40
78 63 68 87 80 72 69 68 70 80 75 48 45 47 48 46 42 47 47 50 49 42 42 44 43 38 36 39 42 43 44 47 51 52 54 53 51 53 54 49 42 41 40 41
82 69 98 91 72 69 79 80 72 75 63 51 51 43 40 41 45 47 44 40 38 39 39 39 40 39 35 37 41 44 48 50 52 52 52 52 52 52 48 43 41 43 43 41
87 89 95 89 77 74 73 87 71 65 57 52 47 40 49 43 42 39 36 34 33 33 36 38 41 45 45 43 42 45 51 51 49 49 50 50 53 49 44 41 40 41 41 42
80 100 109 90 67 52 52 92 59 60 57 47 39 57 53 41 39 35 32 32 33 35 38 41 44 45 50 50 49 51 49 47 46 45 47 48 47 44 42 40 40 40 41 40
93 94 86 64 49 34 67 75 52 47 45 40 46 53 46 35 36 33 32 34 36 39 44 45 39 41 45 47 50 47 42 42 42 40 43 43 41 44 42 41 40 42 42 41
72 80 88 45 35 60 58 47 46 39 34 35 40 41 37 32 31 29 32 37 43 43 43 41 37 39 46 49 42 40 41 43 42 43 43 38 40 40 39 39 39 39 40 40
65 70 51 37 51 41 36 43 40 33 34 37 42 44 40 37 29 29 33 39 42 45 47 45 41 41 47 46 40 39 42 41 40 40 41 41 38 38 39 37 39 39 37 35
56 60 56 44 41 38 40 42 47 49 48 46 49 45 38 35 36 39 40 41 42 47 48 46 44 44 45 39 39 38 40 39 37 36 38 39 37 37 37 37 36 34 32 31
55 50 43 42 43 41 42 42 43 45 48 48 46 46 42 44 46 46 45 45 45 47 49 49 44 43 40 39 36 36 36 34 34 34 35 36 38 36 36 34 31 29 27 26
61 45 45 41 39 41 46 48 46 44 43 40 40 44 47 52 52 51 50 49 50 50 52 48 42 39 38 36 33 33 31 30 30 29 30 31 31 33 34 31 28 28 25 25
44 40 46 49 50 48 45 43 43 45 46 51 53 57 59 61 60 60 57 52 51 53 50 44 40 38 36 31 28 24 26 26 23 25 25 24 26 26 27 27 28 28 27 27
50 53 60 58 62 43 47 57 58 54 56 60 62 59 57 59 63 63 61 57 52 50 48 42 39 37 30 27 22 27 27 23 22 20 19 21 23 23 21 21 23 26 27 28
45 38 45 46 44 48 54 52 48 48 57 56 53 53 57 61 62 61 57 48 43 40 36 34 35 34 27 26 27 25 23 23 18 17 19 20 20 20 19 19 21 23 25 28
43 42 42 41 42 44 42 43 45 47 47 52 51 54 49 47 49 44 39 34 34 36 28 34 35 29 25 27 24 23 22 19 17 18 19 19 20 20 20 19 20 20 21 23
39 44 43 42 41 40 39 38 37 39 36 36 27 28 8 15 18 12 6 2 24 33 30 23 27 24 22 21 18 18 16 16 18 19 18 20 22 23 22 21 20 19 20 20
42 43 45 38 31 29 29 30 4 43 41 38 44 17 13 9 12 17 19 14 12 16 24 29 24 16 15 15 14 15 16 17 18 17 18 20 21 22 22 22 22 22 21 21
38 39 37 33 19 43 46 42 41 39 39 33 32 34 37 34 21 22 20 16 13 13 26 26 18 14 12 12 13 15 17 18 18 17 17 19 20 22 23 23 24 24 23 22
35 34 33 33 33 33 39 39 37 33 30 26 27 30 34 37 37 31 24 19 17 20 17 17 14 12 11 11 13 16 17 17 17 16 17 19 20 22 23 24 25 25 25 25
33 34 34 34 34 35 35 32 25 25 26 25 25 28 31 32 31 28 24 22 21 18 16 14 12 12 12 11 13 14 15 17 16 16 18 19 21 22 23 24 25 26 27 27
34 34 33 31 29 28 28 26 24 24 25 25 24 25 26 26 26 27 25 21 19 18 16 16 18 15 11 11 12 13 13 14 14 16 17 19 20 22 23 25 26 26 26 26
32 31 30 29 29 27 27 26 26 25 25 24 22 21 23 23 24 23 22 20 20 18 16 15 14 14 13 12 12 13 12 13 14 15 17 19 20 21 23 23 24 25 25 25
31 30 29 29 28 27 28 29 28 27 26 25 23 22 22 23 26 25 21 19 19 18 16 15 15 14 13 14 13 13 14 14 13 15 17 18 19 21 22 22 23 23 23 23
29 29 30 30 31 31 30 28 27 26 24 23 23 23 22 23 22 18 18 17 16 15 15 14 14 13 14 14 14 15 15 14 13 14 16 17 18 19 20 21 22 22 22 22
30 30 31 32 31 31 31 30 29 27 24 22 22 21 22 22 21 17 17 15 13 13 13 13 13 13 12 13 15 16 16 14 13 13 15 16 18 19 20 20 20 20 20 20
30 29 29 30 30 31 32 33 32 28 24 25 25 22 20 21 19 18 16 14 11 11 11 12 12 12 12 13 16 17 18 16 12 12 12 13 15 15 16 17 17 18 18 18
Wind_Direction
277 281 284 283 275 267 260 261 269 280 281 280 276 278 277 282 295 300 304 309 315 320 323 324 322 321 322 322 321 319 318 320 321 324 327 328 327 328 328 324 322 321 320 323
276 277 278 277 278 273 266 267 275 285 286 287 275 281 281 278 293 297 299 306 314 318 323 325 322 325 327 324 320 320 320 321 322 323 325 326 327 328 329 326 323 324 324 323
276 280 278 277 271 270 273 273 275 277 282 285 277 272 276 281 288 293 300 308 313 320 325 327 328 329 328 325 323 322 322 322 320 321 322 324 326 327 326 325 324 323 324 323
274 275 274 281 283 275 273 278 275 281 284 275 278 273 279 286 290 295 301 308 316 321 325 328 329 329 330 330 327 324 322 320 321 322 322 323 324 326 329 328 325 321 321 324
272 272 282 287 283 282 277 280 277 275 281 282 285 287 286 289 293 298 305 312 316 322 327 327 327 325 325 326 325 324 321 320 321 322 323 324 323 325 328 328 326 324 324 325
274 276 277 286 284 285 288 282 287 276 277 279 281 281 289 286 289 298 306 310 316 322 323 321 320 323 321 323 323 321 322 322 323 325 327 325 328 330 332 330 329 328 328 330
269 274 279 284 292 283 276 290 297 283 277 273 275 284 296 287 289 298 305 310 314 315 313 315 321 324 320 323 324 327 330 329 330 331 332 331 332 330 330 329 331 329 330 331
269 271 275 284 278 276 289 296 301 298 284 275 281 287 295 294 293 297 303 308 307 310 314 318 320 321 319 320 325 328 327 326 327 328 332 337 334 334 334 333 333 333 333 334
272 278 289 278 290 293 302 301 301 298 293 285 284 288 291 294 296 300 304 305 306 310 314 317 317 318 317 320 325 325 323 323 324 326 329 332 334 332 332 335 334 334 339 342
277 282 287 281 294 297 299 301 300 296 292 290 288 289 292 294 296 300 303 305 307 310 311 313 315 316 318 322 321 322 320 321 323 325 328 330 333 335 335 336 339 342 345 348
281 287 294 292 291 297 301 302 302 301 298 295 296 297 298 298 299 300 300 302 305 307 310 312 314 316 319 321 323 322 321 320 321 322 325 327 330 335 338 343 346 349 357 4
281 290 295 294 296 298 298 300 302 304 306 308 305 302 302 301 300 299 299 300 301 303 307 311 314 316 318 322 324 324 325 326 326 328 331 333 336 341 347 350 357 3 9 19
291 297 298 297 298 300 298 302 303 303 302 302 303 301 300 299 298 296 296 296 296 299 304 307 310 313 317 322 326 332 331 334 338 335 340 346 347 349 351 359 7 12 18 31
296 296 294 294 295 299 298 299 300 300 299 299 300 300 300 302 302 299 294 292 294 297 301 303 306 310 316 321 326 325 331 337 341 351 360 358 357 358 4 5 13 15 30 35
305 310 306 309 309 306 302 302 302 301 300 301 303 303 305 304 302 301 300 295 293 297 302 301 302 305 314 317 311 320 333 339 359 15 13 17 27 36 36 34 29 32 34 31
314 314 314 311 310 310 311 309 306 306 307 306 309 310 312 314 313 309 299 293 293 297 299 295 293 299 312 304 313 325 336 354 20 30 29 45 62 63 59 51 48 44 38 35
322 320 321 317 317 312 313 316 316 318 324 323 314 228 259 328 339 7 109 52 312 297 297 298 296 305 310 314 329 336 355 24 41 34 45 58 69 76 72 64 56 44 35 35
321 320 316 317 325 330 329 331 3 226 235 239 271 95 100 115 164 148 129 95 13 322 305 292 305 330 340 347 345 356 17 43 51 38 46 56 60 56 52 46 39 36 35 38
324 321 308 300 316 267 238 237 220 233 255 335 359 17 12 24 80 107 92 71 55 349 297 301 323 340 3 9 14 31 43 54 45 33 40 51 51 45 44 41 39 41 46 49
300 292 296 307 314 301 272 269 283 317 346 22 38 38 41 43 53 64 62 42 25 344 342 329 343 360 13 25 32 36 51 51 46 42 46 52 49 46 44 44 47 50 52 52
288 295 301 301 305 298 294 304 344 1 17 31 37 44 51 57 60 57 41 24 25 26 19 26 13 2 358 13 17 28 41 51 46 45 59 52 51 51 51 53 56 60 60 58
299 296 302 316 331 334 331 345 5 19 24 28 32 36 37 38 34 20 15 33 50 44 40 50 64 52 16 6 354 2 20 31 29 40 51 58 61 63 62 65 67 66 65 65
311 312 314 323 331 337 343 348 357 5 9 13 17 19 16 19 13 9 11 41 55 47 41 35 45 48 36 4 359 6 14 14 40 45 54 65 68 70 74 73 70 71 70 70
325 331 335 337 340 343 340 339 348 353 1 7 9 9 12 7 353 349 19 57 59 55 45 41 46 42 22 14 10 350 353 12 21 37 53 59 64 72 73 72 70 70 72 74
335 341 342 341 343 344 344 344 349 354 359 359 356 359 5 5 356 9 16 31 53 40 33 43 40 18 4 11 354 346 356 359 18 42 55 62 65 67 67 69 70 69 69 69
351 347 345 345 346 346 347 346 339 340 346 350 356 358 353 354 359 5 5 19 37 39 28 34 13 356 5 359 341 347 349 352 22 38 56 64 67 68 69 68 65 64 65 65
11 10 1 356 353 347 342 337 336 341 350 339 337 348 352 349 352 359 2 6 17 13 8 10 360 356 345 345 333 336 330 340 8 36 48 56 62 63 63 58 52 49 49 55